OZ0AJ-13 Weather Reports


time (UTC)temp
F
wind
direction
speed
knots
gust
knots
rain 1hr
in
rain 24hr
in
rain mn
in
humidity
%
barometer
mb
20260502182031 56 19 2.6 7.8 0.00 0.07 0.07 88 1013.2
20260502181027 56 19 2.6 7.8 0.00 0.07 0.07 89 1013.1
20260502164031 56 19 2.6 7.8 0.06 0.07 0.07 91 1013.4
20260502163027 56 19 2.6 7.8 0.07 0.07 0.07 92 1013.4
20260502162023 56 19 2.6 7.8 0.07 0.07 0.07 91 1013.7
20260502161020 56 19 2.6 7.8 0.06 0.06 0.06 90 1014.0
20260502152020 59 19 2.6 7.8 0.00 0.00 0.00 75 1014.5
20260502151016 60 19 2.6 7.8 0.00 0.00 0.00 72 1014.6
20260502091034 65 19 2.6 7.8 0.00 0.00 0.00 52 1016.4
20260502071027 60 19 2.6 7.8 0.00 0.00 0.00 65 1016.8
20260502070024 59 19 2.6 7.8 0.00 0.00 0.00 67 1017.0
20260502065019 59 19 2.6 7.8 0.00 0.00 0.00 70 1017.1
20260502064016 58 19 2.6 7.8 0.00 0.00 0.00 72 1017.1
20260502063032 58 19 2.6 7.8 0.00 0.00 0.00 74 1017.0
20260502062028 57 19 2.6 7.8 0.00 0.00 0.00 76 1017.1
20260502061024 57 19 2.6 7.8 0.00 0.00 0.00 77 1017.2
20260502060020 56 19 2.6 7.8 0.00 0.00 0.00 79 1017.3
20260502055016 56 19 2.6 7.8 0.00 0.00 0.00 80 1017.1
20260502054032 56 19 2.6 7.8 0.00 0.00 0.00 80 1017.1
20260502053029 55 19 2.6 7.8 0.00 0.00 0.00 81 1017.1
20260502052024 55 19 2.6 7.8 0.00 0.00 0.00 81 1017.1
20260502051020 55 19 2.6 7.8 0.00 0.00 0.00 82 1017.3
20260502050016 55 19 2.6 7.8 0.00 0.00 0.00 82 1017.1
20260502045032 55 19 2.6 7.8 0.00 0.00 0.00 82 1017.2
20260502044029 54 19 2.6 7.8 0.00 0.00 0.00 82 1017.2
20260502043025 54 19 2.6 7.8 0.00 0.00 0.00 81 1017.2
20260502042021 54 19 2.6 7.8 0.00 0.00 0.00 81 1017.3
20260502041017 54 19 2.6 7.8 0.00 0.00 0.00 81 1017.3
20260502040033 54 19 2.6 7.8 0.00 0.00 0.00 81 1017.4
20260502035029 54 19 2.6 7.8 0.00 0.00 0.00 81 1017.6
20260502034025 54 19 2.6 7.8 0.00 0.00 0.00 81 1017.7
20260502033021 54 19 2.6 7.8 0.00 0.00 0.00 81 1017.9
20260502032017 54 19 2.6 7.8 0.00 0.00 0.00 80 1017.9
20260502031034 54 19 2.6 7.8 0.00 0.00 0.00 80 1018.1
20260502030030 54 19 2.6 7.8 0.00 0.00 0.00 80 1018.1
20260502025026 54 19 2.6 7.8 0.00 0.00 0.00 79 1018.3
20260502024022 54 19 2.6 7.8 0.00 0.00 0.00 79 1018.4
20260502023018 54 19 2.6 7.8 0.00 0.00 0.00 79 1018.4
20260502022034 54 19 2.6 7.8 0.00 0.00 0.00 78 1018.7
20260502021030 54 19 2.6 7.8 0.00 0.00 0.00 78 1018.8
20260502020026 54 19 2.6 7.8 0.00 0.00 0.00 77 1018.9
20260502015022 54 19 2.6 7.8 0.00 0.00 0.00 77 1019.1
20260502014018 54 19 2.6 7.8 0.00 0.00 0.00 77 1019.1
20260502013034 53 19 2.6 7.8 0.00 0.00 0.00 77 1019.4
20260502012031 52 19 2.6 7.8 0.00 0.00 0.00 79 1019.4
20260502011027 52 19 2.6 7.8 0.00 0.00 0.00 79 1019.6
20260502010023 51 19 2.6 7.8 0.00 0.00 0.00 79 1019.7
20260502005019 51 19 2.6 7.8 0.00 0.00 0.00 78 1019.8
20260502004035 51 19 2.6 7.8 0.00 0.00 0.00 77 1019.8
20260502003031 51 19 2.6 7.8 0.00 0.00 0.00 77 1020.0
20260502002027 51 19 2.6 7.8 0.00 0.00 0.00 76 1020.2
20260502001023 52 19 2.6 7.8 0.00 0.00 0.00 75 1020.1
20260502000019 52 19 2.6 7.8 0.00 0.00 0.00 74 1020.3
20260501235015 52 19 2.6 7.8 0.00 0.00 0.00 74 1020.2
20260501234032 52 19 2.6 7.8 0.00 0.00 0.00 73 1020.5
20260501233028 52 19 2.6 7.8 0.00 0.00 0.00 72 1020.6
20260501232024 53 19 2.6 7.8 0.00 0.00 0.00 71 1020.7
20260501231020 53 19 2.6 7.8 0.00 0.00 0.00 70 1020.8
20260501230016 53 19 2.6 7.8 0.00 0.00 0.00 70 1020.9
20260501225032 53 19 2.6 7.8 0.00 0.00 0.00 69 1021.0
20260501224028 54 19 2.6 7.8 0.00 0.00 0.00 69 1021.1
20260501223024 54 19 2.6 7.8 0.00 0.00 0.00 68 1021.2
20260501222020 54 19 2.6 7.8 0.00 0.00 0.00 68 1021.4
20260501221016 55 19 2.6 7.8 0.00 0.00 0.00 67 1021.5
20260501213020 56 19 2.6 7.8 0.00 0.00 0.00 65 1021.8
20260501212016 56 19 2.6 7.8 0.00 0.00 0.00 64 1021.8
20260501211032 56 19 2.6 7.8 0.00 0.00 0.00 63 1022.0
20260501210029 57 19 2.6 7.8 0.00 0.00 0.00 63 1022.1
20260501205024 57 19 2.6 7.8 0.00 0.00 0.00 62 1022.2
20260501204021 57 19 2.6 7.8 0.00 0.00 0.00 62 1022.2
20260501203017 57 19 2.6 7.8 0.00 0.00 0.00 60 1022.3
20260501202033 58 19 2.6 7.8 0.00 0.00 0.00 60 1022.3
20260501201029 58 19 2.6 7.8 0.00 0.00 0.00 59 1022.4
20260501200025 58 19 2.6 7.8 0.00 0.00 0.00 59 1022.4
20260501195021 59 19 2.6 7.8 0.00 0.00 0.00 58 1022.5
20260501194017 60 19 2.6 7.8 0.00 0.00 0.00 57 1022.6
20260501193033 61 19 2.6 7.8 0.00 0.00 0.00 55 1022.7
20260501192030 62 19 2.6 7.8 0.00 0.00 0.00 53 1022.6
20260501191026 63 19 2.6 7.8 0.00 0.00 0.00 50 1022.7
20260501190022 64 19 2.6 7.8 0.00 0.00 0.00 49 1022.7
20260501185018 66 19 2.6 7.8 0.00 0.00 0.00 47 1022.7
20260501184034 67 19 2.6 7.8 0.00 0.00 0.00 43 1022.8
20260501183030 69 19 2.6 7.8 0.00 0.00 0.00 41 1022.9